Glendale Luke AFB, AZ

5:19 AM MST on September 21, 2019 (GMT -0700)
Luke Air Force Base

Weather History for KLUF - May, 2019

Change the Weather History Date:

Thursday, May 23, 2019

  Actual Average Record
Temperature  
Mean Temperature 64 °F -  
Max Temperature 75 °F 98 °F 109 °F (1984)
Min Temperature 53 °F 60 °F 47 °F (1927)
Degree Days  
Heating Degree Days 1    
Growing Degree Days 14 (Base 50)    
Moisture  
Dew Point 41 °F    
Average Humidity 45    
Maximum Humidity 85    
Minimum Humidity 22    
Precipitation  
Precipitation 0.04 in - - ()
Sea Level Pressure  
Sea Level Pressure 29.85 in    
Wind  
Wind Speed 8 mph (SW)    
Max Wind Speed 15 mph    
Max Gust Speed 20 mph    
Visibility 10 miles    
Events Rain    
Averages and records for this station are not official NWS values.
T = Trace of Precipitation, MM = Missing Value Source: NWS Daily Summary

Daily Weather History Graph

Daily Weather History Graph

Search for Another Location

Airport or City:

Astronomy

May. 23, 2019 Rise Set
Actual Time 5:24 AM MST 7:28 PM MST
Civil Twilight 4:56 AM MST 7:56 PM MST
Nautical Twilight 4:22 AM MST 8:30 PM MST
Astronomical Twilight 3:45 AM MST 9:07 PM MST
Moon 11:57 PM MST (5/23) 9:32 AM MST (5/23)
Length of Visible Light 15h 00m
Length of Day
14h 04m
Waning Gibbous, 76% of the Moon is Illuminated
May 23
Waning Gibbous
May 26
Last Quarter
Jun 3
New
Jun 9
First Quarter
Jun 17
Full

Hourly Weather History & Observations

Time (MST) Temp. Dew Point Humidity Pressure Visibility Wind Dir Wind Speed Gust Speed Precip Events Conditions
12:48 AM 62.6 °F 41.0 °F 45% 29.71 in 10.0 mi WNW 9.2 mph - N/A   Mostly Cloudy
12:58 AM 61.9 °F 43.0 °F 50% 29.71 in 10.0 mi WNW 10.4 mph - N/A   Mostly Cloudy
1:34 AM 60.8 °F 42.8 °F 52% 29.72 in 10.0 mi West 15.0 mph - N/A   Light Drizzle
1:46 AM 60.8 °F 46.4 °F 59% 29.74 in 10.0 mi WNW 12.7 mph - N/A Rain Light Rain
1:56 AM 59.0 °F 48.2 °F 67% 29.75 in 9.0 mi NW 10.4 mph - N/A Rain Rain
1:58 AM 58.1 °F 49.1 °F 72% 29.75 in 9.0 mi WNW 9.2 mph - 0.01 in Rain Rain
2:18 AM 57.2 °F 46.4 °F 67% 29.75 in 10.0 mi SW 5.8 mph - N/A Rain Light Rain
2:58 AM 56.8 °F 46.0 °F 67% 29.74 in 10.0 mi SSE 8.1 mph - 0.03 in Rain Light Rain
3:02 AM 57.2 °F 46.4 °F 67% 29.74 in 10.0 mi SSE 8.1 mph - N/A   Mostly Cloudy
3:12 AM 57.2 °F 46.4 °F 67% 29.75 in 10.0 mi South 6.9 mph - N/A   Scattered Clouds
3:58 AM 56.1 °F 47.7 °F 73% 29.76 in 10.0 mi Calm Calm - 0.00 in   Partly Cloudy
4:58 AM 55.4 °F 48.9 °F 79% 29.79 in 10.0 mi SW 3.5 mph - N/A   Partly Cloudy
5:58 AM 53.6 °F 49.3 °F 85% 29.83 in 10.0 mi Calm Calm - N/A   Clear
6:58 AM 57.9 °F 47.5 °F 68% 29.86 in 10.0 mi SE 3.5 mph - N/A   Clear
7:58 AM 60.8 °F 43.5 °F 53% 29.88 in 10.0 mi South 8.1 mph - N/A   Clear
8:58 AM 62.6 °F 41.0 °F 45% 29.90 in 10.0 mi SSW 11.5 mph - N/A   Clear
9:58 AM 65.3 °F 39.0 °F 38% 29.92 in 10.0 mi South 8.1 mph - N/A   Clear
10:58 AM 66.6 °F 38.8 °F 36% 29.94 in 10.0 mi SW 9.2 mph - N/A   Clear
11:58 AM 69.6 °F 36.9 °F 30% 29.94 in 10.0 mi South 12.7 mph 18.4 mph N/A   Scattered Clouds
12:36 PM 71.6 °F 35.6 °F 27% 29.94 in 10.0 mi SSW 13.8 mph - N/A   Scattered Clouds
12:58 PM 72.1 °F 34.3 °F 25% 29.94 in 10.0 mi South 12.7 mph 19.6 mph N/A   Mostly Cloudy
1:41 PM 73.4 °F 33.8 °F 23% 29.94 in 10.0 mi South 12.7 mph 17.3 mph N/A   Partly Cloudy
1:58 PM 73.4 °F 34.3 °F 24% 29.94 in 10.0 mi SSW 5.8 mph 18.4 mph N/A   Partly Cloudy
2:14 PM 73.4 °F 35.6 °F 25% 29.93 in 10.0 mi West 12.7 mph - N/A   Clear
2:58 PM 74.7 °F 34.3 °F 23% 29.92 in 10.0 mi South 6.9 mph - N/A   Clear
3:58 PM 75.0 °F 33.6 °F 22% 29.91 in 10.0 mi SSW 9.2 mph - N/A   Clear
4:58 PM 74.3 °F 34.2 °F 23% 29.89 in 10.0 mi SSW 3.5 mph - N/A   Clear
5:58 PM 74.8 °F 33.4 °F 22% 29.88 in 10.0 mi West 6.9 mph - N/A   Clear
6:58 PM 73.8 °F 33.6 °F 23% 29.88 in 10.0 mi West 3.5 mph - N/A   Clear
7:58 PM 72.5 °F 33.6 °F 24% 29.88 in 10.0 mi Calm Calm - N/A   Clear
8:58 PM 69.6 °F 36.0 °F 29% 29.90 in 10.0 mi Calm Calm - N/A   Clear
9:58 PM 66.2 °F 40.5 °F 39% 29.91 in 10.0 mi NNE 5.8 mph - N/A   Clear
10:58 PM 65.1 °F 37.6 °F 36% 29.91 in 10.0 mi North 8.1 mph - N/A   Clear
11:58 PM 63.1 °F 39.0 °F 41% 29.91 in 10.0 mi NW 8.1 mph - N/A   Clear